Flag for Germany Weather past 2 weeks in Bad Oeynhausen, North Rhine-Westphalia, Germany

Now
45 °F

Passing clouds.


Feels Like: 37 °F
Forecast: 40 / 49 °F
Wind: 17 mph from West

Location: Bueckeburg

Current Time: Mar 30, 2015 at 5:15:13 AM

Latest Report: Mar 30, 2015 at 4:20 AM


Visibility: N/A

Pressure: 29.27 "Hg

Humidity: 81%

Dew point: 39 °F

Location of Bad OeynhausenLocation

Historic Weather in Bad Oeynhausen — Graph

°F

Bad Oeynhausen temperature yesterday

Maximum temperature yesterday: 52 °F (at 1:20 AM)
Minimum temperature yesterday: 45 °F (at 11:20 PM)
Average temperature yesterday: 50 °F

Past Weeks' High & Low Weather Summary

 TemperatureHumidityPressure
High63 °F (Mar 25, 3:20 PM)100% (Mar 18, 3:20 AM)30.39 "Hg (Mar 18, 3:20 AM)
Low30 °F (Mar 20, 5:20 AM)39% (Mar 25, 3:20 PM)29.09 "Hg (Mar 29, 8:20 PM)
Average43 °F79%30.04 "Hg
* Reported Mar 15 2:20 AM — Mar 30 3:20 AM, Bad Oeynhausen, Weather by CustomWeather, © 2015

Note: Actual official high and low records may vary slightly from our data, if they occured in-between our weather recording intervals... More about our weather records

Advertising

Bad Oeynhausen weather history for previous 24 hours

 ConditionsComfort  
Time TempWeatherWind HumidityBarometerVisibility
3:20 AM
Mon, Mar 30
45 °FPassing clouds.18 mph81%29.30 "HgN/A
2:20 AM45 °FPassing clouds.20 mph81%29.27 "HgN/A
1:20 AM45 °FPartly cloudy.22 mph76%29.27 "HgN/A
12:20 AM45 °FPartly cloudy.23 mph81%29.24 "HgN/A
11:20 PM
Sun, Mar 29
45 °FPartly cloudy.30 mph81%29.21 "HgN/A
10:20 PM48 °FPassing clouds.30 mph76%29.15 "HgN/A
9:20 PM50 °FPartly cloudy.22 mph82%29.09 "HgN/A
8:20 PM52 °FRain. Fog.25 mph82%29.09 "Hg2 mi
7:50 PM52 °FRain. Fog.24 mph88%29.12 "Hg2 mi
7:20 PM50 °FCool.21 mph94%29.12 "Hg3 mi
6:20 PM50 °FCool.20 mph88%29.18 "Hg2 mi
5:20 PM50 °FCool.15 mph88%29.24 "Hg3 mi
4:20 PM48 °FCool.13 mph94%29.33 "Hg3 mi
3:20 PM50 °FCool.17 mph82%29.39 "Hg3 mi
2:20 PM50 °FCool.14 mph88%29.45 "Hg2 mi
1:20 PM48 °FCool.10 mph94%29.47 "Hg2 mi
12:20 PM48 °FCool.16 mph87%29.50 "Hg1 mi
11:20 AM48 °FCool.17 mph87%29.53 "Hg3 mi
10:20 AM48 °FCool.16 mph87%29.56 "Hg3 mi
9:20 AM48 °FCool.12 mph87%29.56 "Hg2 mi
8:20 AM50 °FCool.20 mph82%29.56 "Hg2 mi
7:20 AM50 °FCool.17 mph82%29.56 "Hg4 mi
6:20 AM52 °FCool.18 mph77%29.59 "Hg2 mi
5:20 AM52 °FCool.22 mph82%29.59 "Hg4 mi
Weather by CustomWeather, © 2015

See weather overviewHow to use our weather pages